GSTU EGKK-LEPA

Flight info

Callsign GSTU
Flight time N/A
Altitude 37000
Route BOGNA1X BOGNA L612 BENBO Y47 DRAKE L151 SITET UN859 SOPIL DCT BALAN DCT EVPOK DCT NARAK DCT GAI DCT LOMRA DCT ROCAN DCT IBRAP DCT LUKEV N13 LORES LORES1P
Aircraft C750/M-SBDE3FGHRWXY/S

Departure

Time 2026-04-18 06:24
Airport London Gatwick Airport (EGKK)

Arrival

Time N/A
Airport Palma de Mallorca Airport (LEPA)
Time Latitude Longitude Altitude Speed Heading
2026-04-18 06:01 51.15190 -0.19463 201 ft 0 kts 78°
2026-04-18 06:08 51.15187 -0.19493 208 ft 4 kts 83°
2026-04-18 06:09 51.15185 -0.19535 204 ft 4 kts 92°
2026-04-18 06:09 51.15188 -0.19578 211 ft 4 kts 108°
2026-04-18 06:09 51.15200 -0.19613 203 ft 4 kts 145°
2026-04-18 06:09 51.15213 -0.19623 204 ft 1 kts 168°
2026-04-18 06:10 51.15215 -0.19624 204 ft 0 kts 168°
2026-04-18 06:15 51.15209 -0.19622 206 ft 5 kts 168°
2026-04-18 06:15 51.15188 -0.19614 206 ft 0 kts 168°
2026-04-18 06:15 51.15181 -0.19612 205 ft 5 kts 168°
2026-04-18 06:16 51.15129 -0.19595 201 ft 0 kts 168°
2026-04-18 06:17 51.15117 -0.19590 201 ft 4 kts 168°
2026-04-18 06:17 51.15076 -0.19577 205 ft 8 kts 168°
2026-04-18 06:17 51.15026 -0.19535 204 ft 7 kts 109°
2026-04-18 06:17 51.15032 -0.19452 208 ft 9 kts 77°
2026-04-18 06:18 51.15050 -0.19330 204 ft 13 kts 77°
2026-04-18 06:18 51.15074 -0.19163 207 ft 18 kts 77°
2026-04-18 06:18 51.15102 -0.18949 206 ft 22 kts 79°
2026-04-18 06:18 51.15136 -0.18692 201 ft 26 kts 77°
2026-04-18 06:19 51.15174 -0.18418 210 ft 24 kts 77°
2026-04-18 06:19 51.15205 -0.18159 208 ft 23 kts 78°
2026-04-18 06:19 51.15238 -0.17914 204 ft 22 kts 77°
2026-04-18 06:19 51.15271 -0.17680 201 ft 21 kts 78°
2026-04-18 06:20 51.15296 -0.17476 201 ft 13 kts 80°
2026-04-18 06:20 51.15310 -0.17341 201 ft 12 kts 80°
2026-04-18 06:20 51.15295 -0.17229 208 ft 11 kts 148°
2026-04-18 06:20 51.15236 -0.17171 202 ft 9 kts 143°
2026-04-18 06:21 51.15201 -0.17113 207 ft 6 kts 104°
2026-04-18 06:21 51.15201 -0.17069 206 ft 3 kts 78°
2026-04-18 06:21 51.15205 -0.17038 204 ft 3 kts 78°
2026-04-18 06:21 51.15209 -0.17008 202 ft 3 kts 78°
2026-04-18 06:22 51.15214 -0.16969 202 ft 4 kts 78°
2026-04-18 06:22 51.15220 -0.16922 202 ft 5 kts 78°
2026-04-18 06:22 51.15224 -0.16890 202 ft 0 kts 78°
2026-04-18 06:22 51.15225 -0.16884 202 ft 2 kts 80°
2026-04-18 06:23 51.15224 -0.16851 202 ft 4 kts 106°
2026-04-18 06:23 51.15204 -0.16813 204 ft 5 kts 134°
2026-04-18 06:23 51.15175 -0.16792 205 ft 4 kts 179°
2026-04-18 06:23 51.15134 -0.16792 202 ft 8 kts 180°
2026-04-18 06:24 51.15119 -0.16823 207 ft 6 kts 264°
2026-04-18 06:24 51.15046 -0.17361 205 ft 105 kts 257°
2026-04-18 06:24 51.14872 -0.18769 543 ft 141 kts 260°
2026-04-18 06:24 51.14651 -0.20461 991 ft 169 kts 259°
2026-04-18 06:25 51.14410 -0.22381 1710 ft 186 kts 261°
2026-04-18 06:25 51.14100 -0.24424 2668 ft 188 kts 257°
2026-04-18 06:25 51.13820 -0.26192 3390 ft 154 kts 258°
2026-04-18 06:25 51.13580 -0.27930 4072 ft 168 kts 258°
2026-04-18 06:26 51.13320 -0.29806 4886 ft 181 kts 257°
2026-04-18 06:26 51.13020 -0.31964 5174 ft 223 kts 257°
2026-04-18 06:26 51.12645 -0.34653 5118 ft 273 kts 257°
2026-04-18 06:26 51.12140 -0.37770 5027 ft 307 kts 250°
2026-04-18 06:27 51.11381 -0.39752 4984 ft 326 kts 231°
2026-04-18 06:27 51.09462 -0.41849 4989 ft 351 kts 204°
2026-04-18 06:27 51.06352 -0.42788 5696 ft 274 kts 188°
2026-04-18 06:27 51.05302 -0.42905 5595 ft 289 kts 190°